This is the latest recevied weather packets stored in our database for station/object DG1UDO-13. If no packets are shown the sender has not sent any weather packets the latest 10 day(s).
| Time | Temp. | Humidity | Pressure | Rain* | Wind** | Luminosity | Snow |
|---|---|---|---|---|---|---|---|
| 1777489500 | 12.22° C | 35% | 1031 hPa | - | - | - | - |
| 1777487701 | 13.33° C | 32% | 1030.7 hPa | - | - | - | - |
| 1777485901 | 13.89° C | 32% | 1030.5 hPa | - | - | - | - |
| 1777484101 | 14.44° C | 36% | 1030.4 hPa | - | - | - | - |
| 1777482301 | 15.56° C | 40% | 1030.1 hPa | - | - | - | - |
| 1777480501 | 16.11° C | 35% | 1030 hPa | - | - | - | - |
| 1777478701 | 16.11° C | 33% | 1030.1 hPa | - | - | - | - |
| 1777476901 | 16.11° C | 33% | 1030.1 hPa | - | - | - | - |
| 1777475100 | 16.67° C | 34% | 1030.2 hPa | - | - | - | - |
| 1777473301 | 16.67° C | 36% | 1030.3 hPa | - | - | - | - |
| 1777471501 | 15.56° C | 39% | 1030.3 hPa | - | - | - | - |
| 1777469701 | 16.11° C | 38% | 1030.7 hPa | - | - | - | - |
| 1777467901 | 15.56° C | 37% | 1030.8 hPa | - | - | - | - |
| 1777466101 | 15° C | 39% | 1031.1 hPa | - | - | - | - |
| 1777464301 | 14.44° C | 41% | 1031.1 hPa | - | - | - | - |
| 1777462501 | 13.89° C | 40% | 1031.3 hPa | - | - | - | - |
| 1777460701 | 13.33° C | 42% | 1031.3 hPa | - | - | - | - |
| 1777458901 | 13.89° C | 37% | 1031.6 hPa | - | - | - | - |
| 1777457101 | 13.33° C | 37% | 1031.6 hPa | - | - | - | - |
| 1777455301 | 13.33° C | 42% | 1031.8 hPa | - | - | - | - |
| 1777453501 | 12.22° C | 43% | 1031.7 hPa | - | - | - | - |
| 1777451701 | 11.11° C | 47% | 1031.7 hPa | - | - | - | - |
| 1777449901 | 11.67° C | 44% | 1031.4 hPa | - | - | - | - |
| 1777448101 | 10.56° C | 49% | 1031.5 hPa | - | - | - | - |
| 1777446301 | 9.44° C | 57% | 1031.3 hPa | - | - | - | - |
* Rain since midnight (hover to see other rain measurements)
** Current wind speed in m/s (hover to see current wind gust speed)